RH
100 100 100 100 100 89 100 100 100 100 100 100 100 100 100 100 100 100 100 90 58 74 100 100 91 78 100 97 77 54 61 75 50 42 46 53 53 67 100 100 81 66 52 44
100 91 100 100 100 100 100 100 100 100 100 100 100 87 89 100 100 100 100 96 83 68 69 91 100 100 100 91 73 57 66 63 61 53 54 55 63 91 100 88 72 44 38 47
75 99 100 100 100 100 100 100 100 100 100 100 96 87 100 71 91 99 94 82 72 71 94 100 100 100 100 98 74 68 62 75 70 70 60 56 71 98 93 78 64 45 41 56
77 92 96 74 100 100 100 100 100 100 98 80 86 53 100 100 100 100 99 81 77 88 100 100 100 100 100 94 64 70 70 61 62 67 68 81 99 93 76 62 52 38 59 62
87 90 81 78 100 100 100 100 100 100 100 98 64 53 45 85 100 100 100 99 87 90 96 100 100 100 100 77 64 75 78 64 71 79 94 91 92 76 62 50 47 47 59 76
74 90 79 72 87 91 100 100 100 100 100 67 80 100 76 60 77 74 58 79 100 100 99 100 100 98 89 70 79 82 78 74 86 100 95 83 74 72 56 38 41 51 66 81
99 89 83 78 82 100 96 95 92 85 91 88 99 100 97 95 90 75 78 88 100 100 99 73 63 88 60 73 80 71 69 98 100 91 80 79 76 64 46 46 41 45 64 57
94 100 99 99 91 91 100 100 100 100 100 100 98 70 88 87 83 97 100 100 100 100 96 64 55 59 64 78 80 69 72 80 79 84 76 79 79 64 50 43 36 45 56 60
94 72 100 93 98 100 93 99 100 100 100 100 92 69 74 79 92 100 100 100 100 100 80 68 74 87 88 73 88 80 60 74 92 86 85 90 78 63 47 44 45 39 83 78
100 100 100 98 97 100 100 100 100 100 100 100 100 95 90 99 100 100 97 100 100 88 93 98 89 92 86 86 88 66 73 99 94 92 96 76 66 56 54 45 45 99 73 57
100 100 100 100 100 96 100 100 100 100 100 100 98 71 71 81 98 100 100 100 88 95 100 100 87 76 97 92 83 86 100 99 95 94 69 59 66 67 56 55 71 77 65 56
78 100 100 100 100 100 100 96 100 95 75 82 91 79 84 88 100 100 100 100 99 100 100 98 100 100 96 96 100 100 100 100 100 86 55 61 68 66 57 72 80 69 58 55
44 94 100 100 100 100 100 100 100 100 100 99 99 96 99 100 100 100 100 100 100 100 100 100 88 85 100 99 87 97 97 95 87 52 60 77 88 55 69 91 83 65 55 70
28 64 100 100 100 100 100 100 100 100 100 100 92 90 95 100 100 100 100 100 100 100 100 97 92 93 73 74 97 93 89 77 51 55 75 95 73 70 62 51 56 72 74 66
25 53 95 100 100 100 100 100 100 100 90 95 89 87 100 100 100 96 97 100 100 100 100 87 82 59 72 84 76 82 70 62 78 100 100 94 81 63 48 60 63 91 62 79
26 72 93 100 100 100 100 100 100 100 100 100 100 100 100 100 100 100 100 100 100 81 87 80 66 65 67 60 84 79 67 99 100 100 100 82 68 51 60 63 88 80 72 65
27 49 94 100 100 100 100 98 100 100 100 100 100 100 100 100 100 100 100 89 74 69 67 71 76 78 100 96 94 100 100 100 100 83 83 72 66 51 72 100 81 76 58 85
100 100 100 100 100 100 100 100 100 100 100 100 100 100 100 100 100 100 100 98 97 100 95 89 99 100 99 100 100 100 98 92 87 67 76 91 92 78 86 82 60 51 60 62
100 100 100 100 100 100 100 100 100 100 100 100 100 100 100 100 100 100 96 99 100 100 100 100 100 100 100 100 98 75 94 73 63 86 78 95 78 65 80 53 54 58 54 64
100 100 100 100 100 99 99 100 100 100 100 100 100 100 100 100 100 100 100 100 100 100 100 100 100 100 98 82 61 66 69 64 65 88 100 92 78 71 47 56 54 85 62 57
100 100 100 100 100 93 90 89 100 100 100 100 100 100 100 100 100 100 100 100 100 100 100 100 90 76 83 68 85 82 48 78 100 92 83 80 70 55 53 51 78 95 67 44
100 100 100 100 100 100 100 100 100 100 100 100 100 100 100 100 100 100 100 100 100 95 92 92 97 100 93 83 65 80 100 93 90 81 83 82 59 57 55 75 68 77 70 27
100 100 100 100 100 100 100 100 100 100 100 100 100 100 100 100 100 100 99 100 100 100 100 98 91 96 92 92 100 100 98 88 86 72 73 70 52 51 100 82 67 51 31 14
100 100 100 100 100 100 100 100 100 100 100 100 100 100 100 100 100 100 100 99 93 97 90 95 95 94 94 98 93 88 86 86 76 74 78 61 63 98 92 81 76 70 21 15
99 100 100 100 100 100 100 100 100 87 100 100 100 100 100 100 100 100 100 100 95 92 70 66 69 93 100 100 100 100 94 74 88 79 67 62 92 100 99 85 60 42 22 10
100 100 100 100 100 100 100 100 100 100 100 94 81 100 100 100 100 100 89 68 62 61 62 83 92 100 100 100 100 100 100 81 67 64 70 81 97 100 100 94 58 28 15 8
Wind_Speed
88 84 72 66 67 73 72 68 64 66 72 65 59 52 55 55 47 55 53 52 51 50 49 62 63 65 60 62 61 60 63 65 58 52 51 49 51 51 52 51 51 51 53 55
93 80 68 74 78 76 76 71 63 62 72 72 69 53 53 54 52 53 54 54 56 53 52 58 62 63 62 62 60 61 64 64 56 52 52 52 53 54 55 56 54 55 58 57
99 81 84 83 85 82 77 72 69 70 76 74 64 55 55 63 63 63 58 57 55 55 52 61 63 62 64 62 65 64 66 61 58 55 55 55 54 56 58 60 55 58 58 61
111 98 93 89 83 85 79 76 81 80 82 77 76 55 56 59 62 64 64 63 56 55 56 61 60 65 65 70 67 66 69 66 63 59 58 55 56 59 61 60 57 61 60 65
106 103 103 98 78 82 80 82 82 86 87 84 73 72 60 64 69 71 69 67 68 61 62 58 63 68 70 71 68 70 71 67 60 58 56 56 60 63 62 62 63 64 67 71
115 113 116 101 100 93 90 84 90 89 89 81 74 84 67 76 74 73 77 77 71 67 61 63 69 74 72 67 69 72 65 61 59 55 57 63 66 66 65 64 68 66 69 73
115 112 111 108 105 101 98 92 94 96 96 80 85 91 68 71 73 73 77 79 77 74 68 70 75 70 73 69 73 69 62 60 58 63 67 67 67 67 67 67 69 72 74 78
127 126 112 105 105 105 107 107 104 101 99 93 97 87 79 80 75 78 81 82 77 74 77 71 73 75 73 78 72 66 64 63 66 68 70 71 70 72 72 75 78 79 79 88
127 125 121 117 112 114 112 114 96 110 105 100 95 85 85 82 77 79 80 78 78 76 76 70 75 75 78 78 69 67 68 68 69 72 75 75 76 77 80 80 83 85 85 93
129 126 126 122 121 118 114 103 112 112 105 100 90 84 75 74 75 79 80 77 75 75 70 73 77 78 81 74 72 72 70 69 72 74 76 78 78 78 81 87 86 84 95 101
124 127 123 125 129 114 111 109 108 107 103 94 87 88 83 80 77 74 74 77 78 74 74 76 79 81 72 73 73 72 70 72 74 76 80 79 81 84 90 85 87 95 101 108
127 122 119 121 121 122 123 120 114 113 106 101 99 83 79 78 79 76 78 79 78 75 77 78 75 71 73 73 73 74 74 74 78 81 82 82 86 88 89 89 96 102 107 113
123 129 121 119 121 120 119 108 107 109 103 99 96 79 82 80 83 83 78 73 75 76 76 77 76 75 74 76 77 76 76 79 84 82 84 86 88 93 93 95 102 108 115 123
123 125 123 119 107 106 110 106 101 102 104 92 98 82 80 79 84 85 82 80 78 78 80 79 76 78 79 79 76 79 81 88 85 83 88 89 94 97 100 104 110 115 124 130
119 122 119 112 108 107 104 103 99 101 92 96 80 90 85 84 84 85 82 81 82 81 81 81 81 79 78 78 82 85 85 84 80 87 92 95 100 103 106 109 116 120 129 132
112 109 112 108 106 103 100 98 95 93 88 93 86 82 75 78 77 76 79 82 84 86 84 85 83 81 82 86 85 84 85 83 84 93 96 103 107 110 112 115 118 127 131 136
108 108 111 108 102 101 105 86 90 92 94 93 88 74 82 81 80 84 84 85 87 87 87 82 81 82 82 84 83 83 86 88 93 104 105 109 112 115 118 121 126 131 135 138
93 97 105 107 105 106 88 90 88 90 90 86 76 75 75 80 84 84 84 86 87 83 81 80 81 85 85 81 83 91 93 97 102 107 110 112 117 119 121 126 132 130 132 137
100 99 98 99 101 101 92 89 88 89 83 78 76 79 82 86 88 87 84 82 83 81 80 84 85 84 82 85 92 96 97 102 107 109 116 116 123 124 129 133 132 136 133 143
108 102 98 98 99 103 95 93 93 94 88 87 89 87 86 86 81 79 83 83 83 83 87 89 89 86 92 96 101 101 104 109 112 115 122 124 126 129 134 131 131 139 139 141
102 97 98 100 101 98 95 96 96 95 79 83 86 88 88 85 88 90 90 89 91 92 92 93 95 97 100 102 102 104 110 113 117 122 126 128 133 131 130 131 137 147 145 136
106 102 103 103 100 93 89 91 92 88 85 86 89 91 92 91 89 90 91 93 94 94 96 95 94 97 101 103 107 110 113 118 122 127 131 136 136 135 138 142 139 144 146 103
114 108 104 109 102 93 96 98 97 90 88 89 90 93 94 95 92 93 93 92 93 94 97 97 100 101 106 107 110 114 118 123 126 130 132 138 135 134 143 145 148 139 122 87
114 110 108 107 102 98 97 96 98 96 93 94 97 99 100 100 98 94 93 97 98 98 100 103 104 109 110 113 118 120 123 127 131 134 136 134 134 139 147 150 149 151 104 85
114 116 110 109 104 101 100 99 102 106 104 99 100 100 101 97 94 98 99 99 102 105 108 109 112 113 115 118 122 123 128 131 134 136 138 136 139 144 152 159 146 127 99 74
119 120 116 116 112 108 105 102 104 106 105 108 107 104 104 105 104 105 107 109 108 110 111 111 115 117 120 123 127 128 130 133 138 143 140 145 143 149 156 158 146 108 86 68
Wind_Direction
239 239 242 244 246 245 245 246 250 255 259 259 259 260 270 272 274 274 278 278 281 284 276 286 296 300 298 302 308 311 313 314 309 306 306 307 305 306 305 307 313 314 312 313
235 237 240 246 244 245 249 248 250 253 259 259 258 257 265 269 271 276 277 275 278 284 287 287 295 296 294 300 306 311 311 312 307 307 306 303 303 303 304 308 311 313 312 311
235 227 232 239 244 245 246 249 252 251 256 256 257 256 263 264 271 272 270 276 281 284 286 293 292 287 291 299 306 307 310 308 307 304 302 302 301 299 303 307 307 309 309 308
237 233 232 233 241 250 251 255 251 252 253 258 257 252 262 269 269 271 273 274 277 280 285 287 282 286 291 298 304 305 307 306 303 301 302 301 298 300 304 304 304 307 310 311
237 237 238 237 236 246 248 249 250 250 251 253 260 259 255 267 269 269 274 274 277 278 288 281 281 288 292 298 301 302 304 302 301 301 300 297 300 304 305 304 307 311 311 312
237 236 238 238 240 241 244 247 252 252 253 255 261 265 258 262 265 270 274 276 275 278 286 281 285 287 291 296 299 301 300 301 299 297 298 301 304 305 304 302 305 308 309 310
237 238 240 240 242 246 250 250 253 257 259 261 261 264 266 269 267 267 271 270 274 277 283 286 287 286 292 292 298 297 300 297 292 296 301 302 303 303 301 300 305 306 305 309
235 237 237 242 246 246 248 252 253 256 257 260 260 264 270 271 270 269 266 267 272 275 281 287 287 288 290 293 293 295 295 294 295 298 301 302 302 301 300 300 303 303 307 310
235 237 241 242 244 244 244 249 253 252 255 257 260 266 273 275 270 263 262 267 271 276 280 283 285 286 289 295 292 294 297 298 297 299 302 302 302 301 301 304 303 306 305 310
235 235 236 239 241 243 245 248 250 255 259 263 264 266 269 269 266 264 265 266 268 275 279 280 283 289 292 291 291 296 299 296 295 299 301 303 302 301 304 304 306 305 309 312
234 236 234 236 238 242 245 246 250 254 257 260 261 264 269 266 264 263 263 266 270 273 278 281 284 288 288 288 293 295 294 291 295 300 303 301 300 302 303 303 306 307 311 314
235 235 235 237 239 240 242 245 247 253 260 264 266 267 267 265 260 259 261 268 273 275 278 283 286 285 284 288 289 290 290 291 297 300 300 300 301 302 306 309 309 310 311 309
232 234 234 235 236 239 243 246 249 253 256 257 259 261 261 260 257 260 265 269 271 277 280 282 283 286 286 287 289 289 290 292 296 299 302 301 304 307 307 306 307 309 310 311
232 232 234 237 241 241 243 245 248 251 251 256 258 259 256 255 257 260 263 267 272 276 279 280 284 285 287 289 289 288 290 295 297 298 301 300 302 307 307 308 310 310 313 317
232 231 233 235 237 239 241 241 244 247 253 256 259 257 257 258 260 263 267 269 270 274 276 279 281 286 286 287 289 291 294 296 298 294 296 302 305 308 310 311 310 313 316 318
229 231 234 235 236 239 241 241 242 248 251 254 256 258 259 259 261 262 264 267 269 274 276 278 282 284 286 289 290 294 296 296 294 297 297 306 307 309 311 310 311 315 316 320
228 230 232 233 235 238 239 243 245 246 247 251 254 257 255 259 261 266 268 269 273 274 277 280 282 285 288 291 294 295 293 292 294 301 304 306 309 310 310 310 313 314 318 323
221 224 228 232 232 236 238 240 243 245 247 251 252 252 254 259 263 266 269 273 275 274 276 281 282 284 290 290 289 292 293 295 298 303 305 305 307 309 309 311 313 316 320 327
219 224 230 233 232 235 234 237 242 245 243 242 246 249 254 258 262 267 271 270 268 272 274 278 282 285 283 285 291 294 294 298 301 302 304 302 306 307 309 310 312 319 324 327
218 222 228 229 231 232 233 236 240 243 244 248 250 254 255 257 261 263 262 263 266 269 274 278 282 280 283 289 294 293 295 297 299 300 302 304 306 309 312 311 314 325 325 324
216 222 226 229 231 232 234 236 240 243 243 244 247 247 249 254 259 262 263 264 266 271 275 277 282 285 287 291 292 291 295 294 294 298 301 305 308 311 315 316 320 323 325 327
219 222 227 231 234 233 234 236 237 238 239 242 248 250 253 256 256 257 260 263 267 271 276 282 283 283 287 289 288 288 290 295 296 300 303 305 306 311 316 321 323 324 324 324
218 222 227 230 232 235 234 235 235 236 238 241 244 247 251 253 257 260 263 265 266 272 276 278 284 284 286 285 288 290 294 297 300 302 305 305 308 314 322 321 322 324 326 323
220 224 226 232 234 233 232 232 237 240 238 241 242 245 249 252 258 263 259 264 273 276 279 280 281 284 286 286 289 292 296 300 301 304 305 306 312 318 318 318 322 323 322 321
219 220 226 232 229 231 236 238 244 246 246 245 244 248 250 254 255 258 263 266 272 274 277 280 282 283 287 290 292 296 296 300 302 303 306 311 314 315 317 318 319 320 321 317
219 223 226 227 232 234 237 239 242 245 245 248 250 248 250 252 259 261 265 270 272 275 277 277 281 285 287 291 293 295 297 300 304 304 306 312 312 311 315 316 317 316 316 313